Year,Month,Day,Hour,Minute,Value (Times are PST for temperature in C)
2008,06,25,00,00,11.50
2008,06,25,00,01,11.40
2008,06,25,00,02,11.40
2008,06,25,00,03,11.40
2008,06,25,00,04,11.40
2008,06,25,00,05,11.40
2008,06,25,00,06,11.40
2008,06,25,00,07,11.40
2008,06,25,00,08,11.40
2008,06,25,00,09,11.40
2008,06,25,00,10,11.30
2008,06,25,00,11,11.30
2008,06,25,00,12,11.30
2008,06,25,00,13,11.30
2008,06,25,00,14,11.30
2008,06,25,00,15,11.30
2008,06,25,00,16,11.30
2008,06,25,00,17,11.30
2008,06,25,00,18,11.30
2008,06,25,00,19,11.30
2008,06,25,00,20,11.20
2008,06,25,00,21,11.20
2008,06,25,00,22,11.20
2008,06,25,00,23,11.20
2008,06,25,00,24,11.20
2008,06,25,00,25,11.20
2008,06,25,00,26,11.20
2008,06,25,00,27,11.20
2008,06,25,00,28,11.20
2008,06,25,00,29,11.10
2008,06,25,00,30,11.10
2008,06,25,00,31,11.10
2008,06,25,00,32,11.10
2008,06,25,00,33,11.10
2008,06,25,00,34,11.10
2008,06,25,00,35,11.10
2008,06,25,00,36,11.10
2008,06,25,00,37,11.10
2008,06,25,00,38,11.10
2008,06,25,00,39,11.10
2008,06,25,00,40,11.10
2008,06,25,00,41,11.00
2008,06,25,00,42,11.00
2008,06,25,00,43,11.00
2008,06,25,00,44,11.00
2008,06,25,00,45,11.00
2008,06,25,00,46,10.90
2008,06,25,00,47,10.90
2008,06,25,00,48,10.90
2008,06,25,00,49,10.90
2008,06,25,00,50,10.90
2008,06,25,00,51,10.80
2008,06,25,00,52,10.80
2008,06,25,00,53,10.80
2008,06,25,00,54,10.80
2008,06,25,00,55,10.80
2008,06,25,00,56,10.80
2008,06,25,00,57,10.80
2008,06,25,00,58,10.80
2008,06,25,00,59,10.80
2008,06,25,01,00,10.80
2008,06,25,01,01,10.80
2008,06,25,01,02,10.70
2008,06,25,01,03,10.70
2008,06,25,01,04,10.70
2008,06,25,01,05,10.70
2008,06,25,01,06,10.70
2008,06,25,01,07,10.70
2008,06,25,01,08,10.70
2008,06,25,01,09,10.70
2008,06,25,01,10,10.70
2008,06,25,01,11,10.70
2008,06,25,01,12,10.70
2008,06,25,01,13,10.60
2008,06,25,01,14,10.60
2008,06,25,01,15,10.60
2008,06,25,01,16,10.60
2008,06,25,01,17,10.60
2008,06,25,01,18,10.60
2008,06,25,01,19,10.60
2008,06,25,01,20,10.50
2008,06,25,01,21,10.50
2008,06,25,01,22,10.50
2008,06,25,01,23,10.50
2008,06,25,01,24,10.50
2008,06,25,01,25,10.50
2008,06,25,01,26,10.50
2008,06,25,01,27,10.50
2008,06,25,01,28,10.50
2008,06,25,01,29,10.50
2008,06,25,01,30,10.50
2008,06,25,01,31,10.40
2008,06,25,01,32,10.40
2008,06,25,01,33,10.40
2008,06,25,01,34,10.40
2008,06,25,01,35,10.40
2008,06,25,01,36,10.40
2008,06,25,01,37,10.40
2008,06,25,01,38,10.40
2008,06,25,01,39,10.40
2008,06,25,01,40,10.40
2008,06,25,01,41,10.40
2008,06,25,01,42,10.40
2008,06,25,01,43,10.30
2008,06,25,01,44,10.30
2008,06,25,01,45,10.30
2008,06,25,01,46,10.30
2008,06,25,01,47,10.30
2008,06,25,01,48,10.30
2008,06,25,01,49,10.30
2008,06,25,01,50,10.30
2008,06,25,01,51,10.30
2008,06,25,01,52,10.30
2008,06,25,01,53,10.20
2008,06,25,01,54,10.20
2008,06,25,01,55,10.20
2008,06,25,01,56,10.20
2008,06,25,01,57,10.20
2008,06,25,01,58,10.20
2008,06,25,01,59,10.20
2008,06,25,02,00,10.20
2008,06,25,02,01,10.20
2008,06,25,02,02,10.20
2008,06,25,02,03,10.10
2008,06,25,02,04,10.10
2008,06,25,02,05,10.10
2008,06,25,02,06,10.10
2008,06,25,02,07,10.10
2008,06,25,02,08,10.10
2008,06,25,02,09,10.10
2008,06,25,02,10,10.10
2008,06,25,02,11,10.10
2008,06,25,02,12,10.10
2008,06,25,02,13,10.10
2008,06,25,02,14,10.00
2008,06,25,02,15,10.10
2008,06,25,02,16,10.10
2008,06,25,02,17,10.10
2008,06,25,02,18,10.10
2008,06,25,02,19,10.00
2008,06,25,02,20,10.00
2008,06,25,02,21,10.10
2008,06,25,02,22,10.00
2008,06,25,02,23,10.00
2008,06,25,02,24,10.00
2008,06,25,02,25,10.00
2008,06,25,02,26,10.00
2008,06,25,02,27,10.00
2008,06,25,02,28,10.00
2008,06,25,02,29,10.00
2008,06,25,02,30,9.90
2008,06,25,02,31,9.90
2008,06,25,02,32,9.90
2008,06,25,02,33,9.90
2008,06,25,02,34,9.90
2008,06,25,02,35,9.90
2008,06,25,02,36,9.90
2008,06,25,02,37,9.90
2008,06,25,02,38,9.90
2008,06,25,02,39,9.90
2008,06,25,02,40,9.90
2008,06,25,02,41,9.80
2008,06,25,02,42,9.80
2008,06,25,02,43,9.80
2008,06,25,02,44,9.80
2008,06,25,02,45,9.80
2008,06,25,02,46,9.80
2008,06,25,02,47,9.80
2008,06,25,02,48,9.80
2008,06,25,02,49,9.80
2008,06,25,02,50,9.80
2008,06,25,02,51,9.70
2008,06,25,02,52,9.70
2008,06,25,02,53,9.70
2008,06,25,02,54,9.70
2008,06,25,02,55,9.70
2008,06,25,02,56,9.70
2008,06,25,02,57,9.70
2008,06,25,02,58,9.70
2008,06,25,02,59,9.70
2008,06,25,03,00,9.70
2008,06,25,03,01,9.70
2008,06,25,03,02,9.70
2008,06,25,03,03,9.70
2008,06,25,03,04,9.70
2008,06,25,03,05,9.70
2008,06,25,03,06,9.60
2008,06,25,03,07,9.60
2008,06,25,03,08,9.60
2008,06,25,03,09,9.60
2008,06,25,03,10,9.60
2008,06,25,03,11,9.60
2008,06,25,03,12,9.60
2008,06,25,03,13,9.60
2008,06,25,03,14,9.60
2008,06,25,03,15,9.60
2008,06,25,03,16,9.60
2008,06,25,03,17,9.60
2008,06,25,03,18,9.60
2008,06,25,03,19,9.60
2008,06,25,03,20,9.60
2008,06,25,03,21,9.60
2008,06,25,03,22,9.60
2008,06,25,03,23,9.60
2008,06,25,03,24,9.60
2008,06,25,03,25,9.60
2008,06,25,03,26,9.60
2008,06,25,03,27,9.50
2008,06,25,03,28,9.50
2008,06,25,03,29,9.50
2008,06,25,03,30,9.50
2008,06,25,03,31,9.50
2008,06,25,03,32,9.50
2008,06,25,03,33,9.50
2008,06,25,03,34,9.50
2008,06,25,03,35,9.60
2008,06,25,03,36,9.60
2008,06,25,03,37,9.60
2008,06,25,03,38,9.60
2008,06,25,03,39,9.60
2008,06,25,03,40,9.60
2008,06,25,03,41,9.60
2008,06,25,03,42,9.50
2008,06,25,03,43,9.50
2008,06,25,03,44,9.50
2008,06,25,03,45,9.50
2008,06,25,03,46,9.50
2008,06,25,03,47,9.50
2008,06,25,03,48,9.50
2008,06,25,03,49,9.50
2008,06,25,03,50,9.40
2008,06,25,03,51,9.40
2008,06,25,03,52,9.40
2008,06,25,03,53,9.40
2008,06,25,03,54,9.40
2008,06,25,03,55,9.40
2008,06,25,03,56,9.40
2008,06,25,03,57,9.30
2008,06,25,03,58,9.30
2008,06,25,03,59,9.30
2008,06,25,04,00,9.30
2008,06,25,04,01,9.30
2008,06,25,04,02,9.30
2008,06,25,04,03,9.30
2008,06,25,04,04,9.30
2008,06,25,04,05,9.30
2008,06,25,04,06,9.20
2008,06,25,04,07,9.20
2008,06,25,04,08,9.20
2008,06,25,04,09,9.20
2008,06,25,04,10,9.20
2008,06,25,04,11,9.20
2008,06,25,04,12,9.20
2008,06,25,04,13,9.20
2008,06,25,04,14,9.20
2008,06,25,04,15,9.10
2008,06,25,04,16,9.10
2008,06,25,04,17,9.10
2008,06,25,04,18,9.10
2008,06,25,04,19,9.10
2008,06,25,04,20,9.10
2008,06,25,04,21,9.00
2008,06,25,04,22,9.00
2008,06,25,04,23,9.00
2008,06,25,04,24,9.00
2008,06,25,04,25,9.00
2008,06,25,04,26,8.90
2008,06,25,04,27,8.90
2008,06,25,04,28,8.90
2008,06,25,04,29,8.90
2008,06,25,04,30,8.90
2008,06,25,04,31,8.90
2008,06,25,04,32,8.90
2008,06,25,04,33,8.90
2008,06,25,04,34,8.90
2008,06,25,04,35,8.90
2008,06,25,04,36,8.80
2008,06,25,04,37,8.80
2008,06,25,04,38,8.80
2008,06,25,04,39,8.80
2008,06,25,04,40,8.80
2008,06,25,04,41,8.80
2008,06,25,04,42,8.80
2008,06,25,04,43,8.80
2008,06,25,04,44,8.70
2008,06,25,04,45,8.70
2008,06,25,04,46,8.70
2008,06,25,04,47,8.70
2008,06,25,04,48,8.70
2008,06,25,04,49,8.70
2008,06,25,04,50,8.70
2008,06,25,04,51,8.70
2008,06,25,04,52,8.70
2008,06,25,04,53,8.70
2008,06,25,04,54,8.70
2008,06,25,04,55,8.70
2008,06,25,04,56,8.70
2008,06,25,04,57,8.70
2008,06,25,04,58,8.70
2008,06,25,04,59,8.70
2008,06,25,05,00,8.70
2008,06,25,05,01,8.70
2008,06,25,05,02,8.70
2008,06,25,05,03,8.70
2008,06,25,05,04,8.70
2008,06,25,05,05,8.70
2008,06,25,05,06,8.70
2008,06,25,05,07,8.70
2008,06,25,05,08,8.70
2008,06,25,05,09,8.70
2008,06,25,05,10,8.70
2008,06,25,05,11,8.70
2008,06,25,05,12,8.70
2008,06,25,05,13,8.70
2008,06,25,05,14,8.70
2008,06,25,05,15,8.70
2008,06,25,05,16,8.70
2008,06,25,05,17,8.70
2008,06,25,05,18,8.70
2008,06,25,05,19,8.70
2008,06,25,05,20,8.70
2008,06,25,05,21,8.70
2008,06,25,05,22,8.70
2008,06,25,05,23,8.70
2008,06,25,05,24,8.70
2008,06,25,05,25,8.70
2008,06,25,05,26,8.70
2008,06,25,05,27,8.70
2008,06,25,05,28,8.70
2008,06,25,05,29,8.70
2008,06,25,05,30,8.70
2008,06,25,05,31,8.70
2008,06,25,05,32,8.70
2008,06,25,05,33,8.70
2008,06,25,05,34,8.70
2008,06,25,05,35,8.70
2008,06,25,05,36,8.70
2008,06,25,05,37,8.70
2008,06,25,05,38,8.70
2008,06,25,05,39,8.60
2008,06,25,05,40,8.60
2008,06,25,05,41,8.60
2008,06,25,05,42,8.60
2008,06,25,05,43,8.60
2008,06,25,05,44,8.60
2008,06,25,05,45,8.60
2008,06,25,05,46,8.60
2008,06,25,05,47,8.60
2008,06,25,05,48,8.60
2008,06,25,05,49,8.60
2008,06,25,05,50,8.70
2008,06,25,05,51,8.70
2008,06,25,05,52,8.70
2008,06,25,05,53,8.70
2008,06,25,05,54,8.70
2008,06,25,05,55,8.70
2008,06,25,05,56,8.70
2008,06,25,05,57,8.70
2008,06,25,05,58,8.80
2008,06,25,05,59,8.80
2008,06,25,06,00,8.80
2008,06,25,06,01,8.80
2008,06,25,06,02,8.80
2008,06,25,06,03,8.80
2008,06,25,06,04,8.90
2008,06,25,06,05,8.90
2008,06,25,06,06,8.90
2008,06,25,06,07,8.90
2008,06,25,06,08,9.00
2008,06,25,06,09,9.00
2008,06,25,06,10,9.00
2008,06,25,06,11,9.10
2008,06,25,06,12,9.10
2008,06,25,06,13,9.10
2008,06,25,06,14,9.10
2008,06,25,06,15,9.20
2008,06,25,06,16,9.20
2008,06,25,06,17,9.20
2008,06,25,06,18,9.20
2008,06,25,06,19,9.20
2008,06,25,06,20,9.30
2008,06,25,06,21,9.30
2008,06,25,06,22,9.40
2008,06,25,06,23,9.40
2008,06,25,06,24,9.40
2008,06,25,06,25,9.40
2008,06,25,06,26,9.40
2008,06,25,06,27,9.50
2008,06,25,06,28,9.50
2008,06,25,06,29,9.50
2008,06,25,06,30,9.50
2008,06,25,06,31,9.60
2008,06,25,06,32,9.60
2008,06,25,06,33,9.60
2008,06,25,06,34,9.60
2008,06,25,06,35,9.70
2008,06,25,06,36,9.70
2008,06,25,06,37,9.80
2008,06,25,06,38,9.80
2008,06,25,06,39,9.90
2008,06,25,06,40,9.90
2008,06,25,06,41,10.00
2008,06,25,06,42,10.00
2008,06,25,06,43,10.10
2008,06,25,06,44,10.20
2008,06,25,06,45,10.20
2008,06,25,06,46,10.30
2008,06,25,06,47,10.30
2008,06,25,06,48,10.40
2008,06,25,06,49,10.40
2008,06,25,06,50,10.50
2008,06,25,06,51,10.60
2008,06,25,06,52,10.70
2008,06,25,06,53,10.80
2008,06,25,06,54,10.80
2008,06,25,06,55,10.90
2008,06,25,06,56,10.90
2008,06,25,06,57,11.00
2008,06,25,06,58,11.00
2008,06,25,06,59,11.10
2008,06,25,07,00,11.20
2008,06,25,07,01,11.20
2008,06,25,07,02,11.20
2008,06,25,07,03,11.30
2008,06,25,07,04,11.30
2008,06,25,07,05,11.30
2008,06,25,07,06,11.30
2008,06,25,07,07,11.40
2008,06,25,07,08,11.40
2008,06,25,07,09,11.40
2008,06,25,07,10,11.40
2008,06,25,07,11,11.40
2008,06,25,07,12,11.40
2008,06,25,07,13,11.40
2008,06,25,07,14,11.40
2008,06,25,07,15,11.40
2008,06,25,07,16,11.40
2008,06,25,07,17,11.40
2008,06,25,07,18,11.40
2008,06,25,07,19,11.50
2008,06,25,07,20,11.50
2008,06,25,07,21,11.60
2008,06,25,07,22,11.60
2008,06,25,07,23,11.60
2008,06,25,07,24,11.70
2008,06,25,07,25,11.70
2008,06,25,07,26,11.70
2008,06,25,07,27,11.70
2008,06,25,07,28,11.70
2008,06,25,07,29,11.70
2008,06,25,07,30,11.70
2008,06,25,07,31,11.80
2008,06,25,07,32,11.80
2008,06,25,07,33,11.90
2008,06,25,07,34,11.90
2008,06,25,07,35,11.90
2008,06,25,07,36,11.90
2008,06,25,07,37,12.00
2008,06,25,07,38,12.00
2008,06,25,07,39,12.00
2008,06,25,07,40,12.10
2008,06,25,07,41,12.10
2008,06,25,07,42,12.10
2008,06,25,07,43,12.10
2008,06,25,07,44,12.20
2008,06,25,07,45,12.20
2008,06,25,07,46,12.30
2008,06,25,07,47,12.30
2008,06,25,07,48,12.40
2008,06,25,07,49,12.40
2008,06,25,07,50,12.30
2008,06,25,07,51,12.30
2008,06,25,07,52,12.20
2008,06,25,07,53,12.20
2008,06,25,07,54,12.10
2008,06,25,07,55,12.00
2008,06,25,07,56,11.90
2008,06,25,07,57,11.80
2008,06,25,07,58,11.80
2008,06,25,07,59,11.70
2008,06,25,08,00,11.70
2008,06,25,08,01,11.70
2008,06,25,08,02,11.70
2008,06,25,08,03,11.70
2008,06,25,08,04,11.70
2008,06,25,08,05,11.60
2008,06,25,08,06,11.60
2008,06,25,08,07,11.60
2008,06,25,08,08,11.60
2008,06,25,08,09,11.60
2008,06,25,08,10,11.60
2008,06,25,08,11,11.60
2008,06,25,08,12,11.60
2008,06,25,08,13,11.60
2008,06,25,08,14,11.60
2008,06,25,08,15,11.60
2008,06,25,08,16,11.70
2008,06,25,08,17,11.80
2008,06,25,08,18,11.80
2008,06,25,08,19,11.90
2008,06,25,08,20,11.90
2008,06,25,08,21,12.00
2008,06,25,08,22,11.90
2008,06,25,08,23,11.90
2008,06,25,08,24,11.90
2008,06,25,08,25,11.80
2008,06,25,08,26,11.80
2008,06,25,08,27,11.80
2008,06,25,08,28,11.80
2008,06,25,08,29,11.80
2008,06,25,08,30,11.90
2008,06,25,08,31,12.00
2008,06,25,08,32,12.10
2008,06,25,08,33,12.10
2008,06,25,08,34,12.20
2008,06,25,08,35,12.30
2008,06,25,08,36,12.40
2008,06,25,08,37,12.40
2008,06,25,08,38,12.50
2008,06,25,08,39,12.60
2008,06,25,08,40,12.70
2008,06,25,08,41,12.70
2008,06,25,08,42,12.80
2008,06,25,08,43,12.90
2008,06,25,08,44,12.90
2008,06,25,08,45,13.00
2008,06,25,08,46,13.00
2008,06,25,08,47,13.00
2008,06,25,08,48,13.10
2008,06,25,08,49,13.00
2008,06,25,08,50,12.90
2008,06,25,08,51,12.90
2008,06,25,08,52,12.80
2008,06,25,08,53,12.70
2008,06,25,08,54,12.60
2008,06,25,08,55,12.40
2008,06,25,08,56,12.30
2008,06,25,08,57,12.30
2008,06,25,08,58,12.30
2008,06,25,08,59,12.30
2008,06,25,09,00,12.30
2008,06,25,09,01,12.20
2008,06,25,09,02,12.20
2008,06,25,09,03,12.20
2008,06,25,09,04,12.20
2008,06,25,09,05,12.30
2008,06,25,09,06,12.30
2008,06,25,09,07,12.20
2008,06,25,09,08,12.20
2008,06,25,09,09,12.20
2008,06,25,09,10,12.20
2008,06,25,09,11,12.20
2008,06,25,09,12,12.20
2008,06,25,09,13,12.20
2008,06,25,09,14,12.20
2008,06,25,09,15,12.30
2008,06,25,09,16,12.30
2008,06,25,09,17,12.40
2008,06,25,09,18,12.50
2008,06,25,09,19,12.60
2008,06,25,09,20,12.60
2008,06,25,09,21,12.70
2008,06,25,09,22,12.70
2008,06,25,09,23,12.60
2008,06,25,09,24,12.60
2008,06,25,09,25,12.60
2008,06,25,09,26,12.60
2008,06,25,09,27,12.60
2008,06,25,09,28,12.60
2008,06,25,09,29,12.50
2008,06,25,09,30,12.50
2008,06,25,09,31,12.40
2008,06,25,09,32,12.40
2008,06,25,09,33,12.50
2008,06,25,09,34,12.60
2008,06,25,09,35,12.60
2008,06,25,09,36,12.70
2008,06,25,09,37,12.70
2008,06,25,09,38,12.80
2008,06,25,09,39,12.80
2008,06,25,09,40,12.90
2008,06,25,09,41,12.90
2008,06,25,09,42,12.90
2008,06,25,09,43,12.80
2008,06,25,09,44,12.90
2008,06,25,09,45,12.90
2008,06,25,09,46,13.00
2008,06,25,09,47,13.10
2008,06,25,09,48,13.20
2008,06,25,09,49,13.20
2008,06,25,09,50,13.20
2008,06,25,09,51,13.20
2008,06,25,09,52,13.10
2008,06,25,09,53,13.20
2008,06,25,09,54,13.20
2008,06,25,09,55,13.20
2008,06,25,09,56,13.20
2008,06,25,09,57,13.20
2008,06,25,09,58,13.20
2008,06,25,09,59,13.20
2008,06,25,10,00,13.30
2008,06,25,10,01,13.30
2008,06,25,10,02,13.30
2008,06,25,10,03,13.30
2008,06,25,10,04,13.30
2008,06,25,10,05,13.40
2008,06,25,10,06,13.40
2008,06,25,10,07,13.40
2008,06,25,10,08,13.40
2008,06,25,10,09,13.40
2008,06,25,10,10,13.40
2008,06,25,10,11,13.40
2008,06,25,10,12,13.40
2008,06,25,10,13,13.50
2008,06,25,10,14,13.60
2008,06,25,10,15,13.60
2008,06,25,10,16,13.70
2008,06,25,10,17,13.70
2008,06,25,10,18,13.80
2008,06,25,10,19,13.90
2008,06,25,10,20,14.00
2008,06,25,10,21,14.10
2008,06,25,10,22,14.10
2008,06,25,10,23,14.20
2008,06,25,10,24,14.20
2008,06,25,10,25,14.20
2008,06,25,10,26,14.30
2008,06,25,10,27,14.30
2008,06,25,10,28,14.20
2008,06,25,10,29,14.20
2008,06,25,10,30,14.20
2008,06,25,10,31,14.30
2008,06,25,10,32,14.40
2008,06,25,10,33,14.50
2008,06,25,10,34,14.70
2008,06,25,10,35,14.70
2008,06,25,10,36,14.60
2008,06,25,10,37,14.60
2008,06,25,10,38,14.60
2008,06,25,10,39,14.70
2008,06,25,10,40,14.60
2008,06,25,10,41,14.60
2008,06,25,10,42,14.70
2008,06,25,10,43,14.70
2008,06,25,10,44,14.80
2008,06,25,10,45,14.90
2008,06,25,10,46,14.90
2008,06,25,10,47,14.90
2008,06,25,10,48,15.00
2008,06,25,10,49,15.00
2008,06,25,10,50,15.00
2008,06,25,10,51,15.00
2008,06,25,10,52,15.10
2008,06,25,10,53,15.20
2008,06,25,10,54,15.40
2008,06,25,10,55,15.40
2008,06,25,10,56,15.40
2008,06,25,10,57,15.40
2008,06,25,10,58,15.40
2008,06,25,10,59,15.40
2008,06,25,11,00,15.50
2008,06,25,11,01,15.60
2008,06,25,11,02,15.80
2008,06,25,11,03,15.90
2008,06,25,11,04,16.00
2008,06,25,11,05,16.20
2008,06,25,11,06,16.30
2008,06,25,11,07,16.40
2008,06,25,11,08,16.50
2008,06,25,11,09,16.50
2008,06,25,11,10,16.50
2008,06,25,11,11,16.50
2008,06,25,11,12,16.60
2008,06,25,11,13,16.60
2008,06,25,11,14,16.70
2008,06,25,11,15,16.80
2008,06,25,11,16,16.90
2008,06,25,11,17,17.00
2008,06,25,11,18,17.10
2008,06,25,11,19,17.20
2008,06,25,11,20,17.10
2008,06,25,11,21,17.10
2008,06,25,11,22,17.20
2008,06,25,11,23,17.20
2008,06,25,11,24,17.30
2008,06,25,11,25,17.50
2008,06,25,11,26,17.50
2008,06,25,11,27,17.50
2008,06,25,11,28,17.40
2008,06,25,11,29,17.40
2008,06,25,11,30,17.40
2008,06,25,11,31,17.40
2008,06,25,11,32,17.30
2008,06,25,11,33,17.10
2008,06,25,11,34,17.00
2008,06,25,11,35,16.90
2008,06,25,11,36,16.80
2008,06,25,11,37,16.80
2008,06,25,11,38,16.70
2008,06,25,11,39,16.60
2008,06,25,11,40,16.60
2008,06,25,11,41,16.60
2008,06,25,11,42,16.60
2008,06,25,11,43,16.70
2008,06,25,11,44,16.70
2008,06,25,11,45,16.80
2008,06,25,11,46,16.80
2008,06,25,11,47,16.90
2008,06,25,11,48,17.00
2008,06,25,11,49,17.20
2008,06,25,11,50,17.30
2008,06,25,11,51,17.50
2008,06,25,11,52,17.60
2008,06,25,11,53,17.60
2008,06,25,11,54,17.50
2008,06,25,11,55,17.50
2008,06,25,11,56,17.50
2008,06,25,11,57,17.60
2008,06,25,11,58,17.70
2008,06,25,11,59,17.80
2008,06,25,12,00,17.90
2008,06,25,12,01,18.00
2008,06,25,12,02,18.20
2008,06,25,12,03,18.20
2008,06,25,12,04,18.20
2008,06,25,12,05,18.20
2008,06,25,12,06,18.20
2008,06,25,12,07,18.10
2008,06,25,12,08,18.00
2008,06,25,12,09,17.90
2008,06,25,12,10,17.70
2008,06,25,12,11,17.50
2008,06,25,12,12,17.30
2008,06,25,12,13,17.30
2008,06,25,12,14,17.30
2008,06,25,12,15,17.30
2008,06,25,12,16,17.20
2008,06,25,12,17,17.30
2008,06,25,12,18,17.40
2008,06,25,12,19,17.50
2008,06,25,12,20,17.50
2008,06,25,12,21,17.60
2008,06,25,12,22,17.70
2008,06,25,12,23,17.80
2008,06,25,12,24,17.80
2008,06,25,12,25,17.70
2008,06,25,12,26,17.70
2008,06,25,12,27,17.60
2008,06,25,12,28,17.50
2008,06,25,12,29,17.50
2008,06,25,12,30,17.60
2008,06,25,12,31,17.70
2008,06,25,12,32,17.90
2008,06,25,12,33,18.00
2008,06,25,12,34,18.10
2008,06,25,12,35,18.30
2008,06,25,12,36,18.50
2008,06,25,12,37,18.50
2008,06,25,12,38,18.40
2008,06,25,12,39,18.40
2008,06,25,12,40,18.30
2008,06,25,12,41,18.30
2008,06,25,12,42,18.30
2008,06,25,12,43,18.30
2008,06,25,12,44,18.30
2008,06,25,12,45,18.30
2008,06,25,12,46,18.40
2008,06,25,12,47,18.40
2008,06,25,12,48,18.40
2008,06,25,12,49,18.20
2008,06,25,12,50,18.10
2008,06,25,12,51,18.00
2008,06,25,12,52,17.80
2008,06,25,12,53,17.80
2008,06,25,12,54,17.80
2008,06,25,12,55,17.90
2008,06,25,12,56,18.00
2008,06,25,12,57,18.10
2008,06,25,12,58,18.10
2008,06,25,12,59,18.10
2008,06,25,13,00,18.20
2008,06,25,13,01,18.20
2008,06,25,13,02,18.20
2008,06,25,13,03,18.30
2008,06,25,13,04,18.30
2008,06,25,13,05,18.20
2008,06,25,13,06,18.20
2008,06,25,13,07,18.20
2008,06,25,13,08,18.10
2008,06,25,13,09,18.00
2008,06,25,13,10,17.90
2008,06,25,13,11,17.80
2008,06,25,13,12,17.90
2008,06,25,13,13,18.00
2008,06,25,13,14,18.20
2008,06,25,13,15,18.40
2008,06,25,13,16,18.50
2008,06,25,13,17,18.60
2008,06,25,13,18,18.70
2008,06,25,13,19,18.70
2008,06,25,13,20,18.80
2008,06,25,13,21,18.70
2008,06,25,13,22,18.60
2008,06,25,13,23,18.60
2008,06,25,13,24,18.50
2008,06,25,13,25,18.30
2008,06,25,13,26,18.30
2008,06,25,13,27,18.30
2008,06,25,13,28,18.40
2008,06,25,13,29,18.40
2008,06,25,13,30,18.30
2008,06,25,13,31,18.20
2008,06,25,13,32,18.20
2008,06,25,13,33,18.20
2008,06,25,13,34,18.20
2008,06,25,13,35,18.20
2008,06,25,13,36,18.20
2008,06,25,13,37,18.20
2008,06,25,13,38,18.20
2008,06,25,13,39,18.20
2008,06,25,13,40,18.20
2008,06,25,13,41,18.20
2008,06,25,13,42,18.30
2008,06,25,13,43,18.40
2008,06,25,13,44,18.50
2008,06,25,13,45,18.60
2008,06,25,13,46,18.60
2008,06,25,13,47,18.70
2008,06,25,13,48,18.70
2008,06,25,13,49,18.80
2008,06,25,13,50,18.80
2008,06,25,13,51,18.90
2008,06,25,13,52,18.90
2008,06,25,13,53,18.90
2008,06,25,13,54,18.90
2008,06,25,13,55,18.80
2008,06,25,13,56,18.70
2008,06,25,13,57,18.70
2008,06,25,13,58,18.80
2008,06,25,13,59,18.80
2008,06,25,14,00,19.00
2008,06,25,14,01,19.20
2008,06,25,14,02,19.30
2008,06,25,14,03,19.40
2008,06,25,14,04,19.40
2008,06,25,14,05,19.40
2008,06,25,14,06,19.30
2008,06,25,14,07,19.20
2008,06,25,14,08,19.10
2008,06,25,14,09,19.10
2008,06,25,14,10,19.10
2008,06,25,14,11,19.20
2008,06,25,14,12,19.20
2008,06,25,14,13,19.30
2008,06,25,14,14,19.30
2008,06,25,14,15,19.40
2008,06,25,14,16,19.50
2008,06,25,14,17,19.60
2008,06,25,14,18,19.70
2008,06,25,14,19,19.80
2008,06,25,14,20,19.90
2008,06,25,14,21,19.90
2008,06,25,14,22,19.90
2008,06,25,14,23,19.90
2008,06,25,14,24,19.90
2008,06,25,14,25,19.80
2008,06,25,14,26,19.80
2008,06,25,14,27,19.70
2008,06,25,14,28,19.60
2008,06,25,14,29,19.60
2008,06,25,14,30,19.70
2008,06,25,14,31,19.70
2008,06,25,14,32,19.80
2008,06,25,14,33,19.80
2008,06,25,14,34,19.80
2008,06,25,14,35,19.80
2008,06,25,14,36,19.70
2008,06,25,14,37,19.70
2008,06,25,14,38,19.80
2008,06,25,14,39,19.90
2008,06,25,14,40,19.80
2008,06,25,14,41,19.80
2008,06,25,14,42,19.70
2008,06,25,14,43,19.70
2008,06,25,14,44,19.60
2008,06,25,14,45,19.60
2008,06,25,14,46,19.60
2008,06,25,14,47,19.60
2008,06,25,14,48,19.70
2008,06,25,14,49,19.80
2008,06,25,14,50,19.80
2008,06,25,14,51,19.80
2008,06,25,14,52,19.90
2008,06,25,14,53,19.90
2008,06,25,14,54,19.80
2008,06,25,14,55,19.70
2008,06,25,14,56,19.70
2008,06,25,14,57,19.70
2008,06,25,14,58,19.60
2008,06,25,14,59,19.60
2008,06,25,15,00,19.60
2008,06,25,15,01,19.50
2008,06,25,15,02,19.50
2008,06,25,15,03,19.40
2008,06,25,15,04,19.40
2008,06,25,15,05,19.50
2008,06,25,15,06,19.40
2008,06,25,15,07,19.40
2008,06,25,15,08,19.40
2008,06,25,15,09,19.40
2008,06,25,15,10,19.40
2008,06,25,15,11,19.40
2008,06,25,15,12,19.40
2008,06,25,15,13,19.40
2008,06,25,15,14,19.30
2008,06,25,15,15,19.30
2008,06,25,15,16,19.30
2008,06,25,15,17,19.20
2008,06,25,15,18,19.20
2008,06,25,15,19,19.30
2008,06,25,15,20,19.50
2008,06,25,15,21,19.50
2008,06,25,15,22,19.40
2008,06,25,15,23,19.40
2008,06,25,15,24,19.30
2008,06,25,15,25,19.30
2008,06,25,15,26,19.20
2008,06,25,15,27,19.10
2008,06,25,15,28,19.00
2008,06,25,15,29,19.00
2008,06,25,15,30,18.90
2008,06,25,15,31,18.90
2008,06,25,15,32,19.00
2008,06,25,15,33,19.00
2008,06,25,15,34,19.10
2008,06,25,15,35,19.10
2008,06,25,15,36,19.00
2008,06,25,15,37,18.90
2008,06,25,15,38,18.90
2008,06,25,15,39,18.80
2008,06,25,15,40,18.80
2008,06,25,15,41,18.80
2008,06,25,15,42,18.70
2008,06,25,15,43,18.70
2008,06,25,15,44,18.70
2008,06,25,15,45,18.70
2008,06,25,15,46,18.80
2008,06,25,15,47,18.80
2008,06,25,15,48,18.80
2008,06,25,15,49,18.80
2008,06,25,15,50,18.80
2008,06,25,15,51,18.80
2008,06,25,15,52,18.80
2008,06,25,15,53,18.70
2008,06,25,15,54,18.70
2008,06,25,15,55,18.70
2008,06,25,15,56,18.70
2008,06,25,15,57,18.70
2008,06,25,15,58,18.60
2008,06,25,15,59,18.60
2008,06,25,16,00,18.60
2008,06,25,16,01,18.60
2008,06,25,16,02,18.60
2008,06,25,16,03,18.70
2008,06,25,16,04,18.70
2008,06,25,16,05,18.90
2008,06,25,16,06,19.00
2008,06,25,16,07,19.10
2008,06,25,16,08,19.20
2008,06,25,16,09,19.20
2008,06,25,16,10,19.30
2008,06,25,16,11,19.30
2008,06,25,16,12,19.30
2008,06,25,16,13,19.30
2008,06,25,16,14,19.30
2008,06,25,16,15,19.20
2008,06,25,16,16,19.10
2008,06,25,16,17,19.10
2008,06,25,16,18,19.20
2008,06,25,16,19,19.30
2008,06,25,16,20,19.40
2008,06,25,16,21,19.40
2008,06,25,16,22,19.50
2008,06,25,16,23,19.50
2008,06,25,16,24,19.50
2008,06,25,16,25,19.30
2008,06,25,16,26,19.20
2008,06,25,16,27,19.10
2008,06,25,16,28,19.10
2008,06,25,16,29,19.00
2008,06,25,16,30,19.00
2008,06,25,16,31,18.90
2008,06,25,16,32,19.00
2008,06,25,16,33,19.10
2008,06,25,16,34,19.10
2008,06,25,16,35,19.20
2008,06,25,16,36,19.20
2008,06,25,16,37,19.20
2008,06,25,16,38,19.20
2008,06,25,16,39,19.20
2008,06,25,16,40,19.30
2008,06,25,16,41,19.30
2008,06,25,16,42,19.30
2008,06,25,16,43,19.30
2008,06,25,16,44,19.40
2008,06,25,16,45,19.50
2008,06,25,16,46,19.60
2008,06,25,16,47,19.60
2008,06,25,16,48,19.60
2008,06,25,16,49,19.60
2008,06,25,16,50,19.60
2008,06,25,16,51,19.60
2008,06,25,16,52,19.60
2008,06,25,16,53,19.60
2008,06,25,16,54,19.50
2008,06,25,16,55,19.40
2008,06,25,16,56,19.30
2008,06,25,16,57,19.30
2008,06,25,16,58,19.20
2008,06,25,16,59,19.10
2008,06,25,17,00,19.00
2008,06,25,17,01,18.90
2008,06,25,17,02,18.80
2008,06,25,17,03,18.80
2008,06,25,17,04,18.80
2008,06,25,17,05,18.80
2008,06,25,17,06,18.80
2008,06,25,17,07,18.80
2008,06,25,17,08,18.80
2008,06,25,17,09,18.80
2008,06,25,17,10,18.80
2008,06,25,17,11,18.70
2008,06,25,17,12,18.70
2008,06,25,17,13,18.70
2008,06,25,17,14,18.80
2008,06,25,17,15,18.90
2008,06,25,17,16,18.90
2008,06,25,17,17,18.90
2008,06,25,17,18,18.90
2008,06,25,17,19,18.80
2008,06,25,17,20,18.70
2008,06,25,17,21,18.70
2008,06,25,17,22,18.70
2008,06,25,17,23,18.70
2008,06,25,17,24,18.80
2008,06,25,17,25,18.80
2008,06,25,17,26,18.80
2008,06,25,17,27,18.80
2008,06,25,17,28,18.90
2008,06,25,17,29,18.90
2008,06,25,17,30,18.90